Location: Gälforsberget
(66.6500°N, 22.4167°E)
Time: 21:35:27
(UTC+00:00)

Landsat 5 - Pass Details

Date: 11 April 2026
Orbit: 507 x 601 km, 98.1° (Epoch: 13 May)

Event Time Altitude Azimuth Distance (km) Brightness Sun altitude
Rises 23:49:52 0° 21° (NNE) 2,793 9.0 -13.4°
Reaches altitude 10° 23:52:00 10° 19° (NNE) 1,905 7.6 -13.3°
Maximum altitude 23:56:08 72° 296° (WNW) 625 3.6 -13.2°
Enters shadow 23:58:58 20° 215° (SW) 1,387 4.7 -13.1°
